Oak Ridge, TN

8:36 PM EDT on April 28, 2017 (GMT -0400)
Oak Ridge

Weather History for KOQT - January, 2014

Change the Weather History Date:

Monday, January 6, 2014

  Actual Average (KTYS) Record (KTYS)
Temperature  
Mean Temperature 19 °F -  
Max Temperature 32 °F 46 °F 70 °F (1907)
Min Temperature 5 °F 30 °F -16 °F (1884)
Degree Days  
Heating Degree Days 46    
Moisture  
Dew Point 8 °F    
Average Humidity 68    
Maximum Humidity 92    
Minimum Humidity 44    
Precipitation  
Precipitation 0.01 in - - ()
Sea Level Pressure  
Sea Level Pressure 30.21 in    
Wind  
Wind Speed 9 mph (West)    
Max Wind Speed 13 mph    
Max Gust Speed 22 mph    
Visibility 8 miles    
Events Snow    
Averages and records for this station are not official NWS values.
T = Trace of Precipitation, MM = Missing Value Source: NWS Daily Summary

Daily Weather History Graph

Daily Weather History Graph

Search for Another Location

Airport or City:

Trip Planner

Search our weather history database for the weather conditions in past years. The results will help you decide how hot, cold, wet, or windy it might be!

Date:

Astronomy

Jan. 06, 2014 Rise Set
Actual Time 7:48 AM EST 5:37 PM EST
Civil Twilight 7:19 AM EST 6:06 PM EST
Nautical Twilight 6:47 AM EST 6:37 PM EST
Astronomical Twilight 6:16 AM EST 7:09 PM EST
Moon 11:14 AM EST (1/6) 11:57 PM EST (1/6)
Length of Visible Light 10h 46m
Length of Day
9h 49m
Waxing Crescent, 34% of the Moon is Illuminated
Jan 6
Waxing Crescent
Jan 7
First Quarter
Jan 15
Full
Jan 24
Last Quarter
Jan 30
New

Hourly Weather History & Observations

Time (EST) Temp. Windchill Dew Point Humidity Pressure Visibility Wind Dir Wind Speed Gust Speed Precip Events Conditions
12:42 AM 32.0 °F 24.2 °F 30.0 °F 92% 29.80 in 2.0 mi SW 9.2 mph 16.1 mph 0.00 in Snow Light Snow
12:53 AM 32.0 °F 23.6 °F 28.9 °F 88% 29.86 in 2.5 mi SW 10.4 mph 19.6 mph 0.01 in Snow Light Snow
1:11 AM 30.9 °F 24.3 °F 28.0 °F 89% 29.86 in 3.0 mi Variable 6.9 mph 18.4 mph 0.00 in Snow Light Snow
1:53 AM 28.9 °F 19.2 °F 25.0 °F 85% 29.94 in 10.0 mi West 11.5 mph 18.4 mph 0.00 in   Overcast
2:53 AM 26.1 °F 15.0 °F 21.0 °F 81% 30.01 in 10.0 mi West 12.7 mph 20.7 mph 0.00 in   Overcast
3:22 AM 25.0 °F 14.8 °F 19.9 °F 81% 30.00 in 7.0 mi West 10.4 mph 21.9 mph 0.00 in Snow Light Snow
3:53 AM 24.1 °F 13.7 °F 19.0 °F 81% 30.05 in 5.0 mi West 10.4 mph 16.1 mph 0.00 in Snow Light Snow
4:14 AM 23.0 °F 13.1 °F 18.0 °F 81% 30.02 in 6.0 mi West 9.2 mph - 0.00 in Snow Light Snow
4:53 AM 23.0 °F 12.4 °F 17.1 °F 78% 30.08 in 8.0 mi West 10.4 mph - 0.00 in Snow Light Snow
5:21 AM 21.9 °F 11.0 °F 15.1 °F 75% 30.05 in 7.0 mi WNW 10.4 mph 18.4 mph 0.00 in Snow Light Snow
5:53 AM 21.9 °F 12.5 °F 14.0 °F 72% 30.12 in 9.0 mi West 8.1 mph 17.3 mph 0.00 in Snow Light Snow
6:53 AM 19.9 °F 13.4 °F 14.0 °F 78% 30.15 in 4.0 mi West 4.6 mph - 0.00 in Snow Light Snow
7:53 AM 19.0 °F 10.0 °F 12.0 °F 74% 30.18 in 10.0 mi WSW 6.9 mph - 0.00 in   Overcast
8:02 AM 19.0 °F 10.0 °F 12.0 °F 74% 30.14 in 10.0 mi Variable 6.9 mph - N/A   Overcast
8:33 AM 18.0 °F 6.9 °F 10.9 °F 74% 30.15 in 7.0 mi West 9.2 mph - 0.00 in Snow Light Snow
8:53 AM 18.0 °F 6.9 °F 10.0 °F 71% 30.20 in 8.0 mi West 9.2 mph 16.1 mph 0.00 in Snow Light Snow
9:53 AM 16.0 °F 3.6 °F 9.0 °F 74% 30.24 in 8.0 mi West 10.4 mph 19.6 mph 0.00 in Snow Light Snow
10:53 AM 15.1 °F 4.2 °F 5.0 °F 64% 30.26 in 10.0 mi West 8.1 mph 16.1 mph 0.00 in   Overcast
11:53 AM 14.0 °F 0.5 °F 3.0 °F 62% 30.27 in 10.0 mi WSW 11.5 mph 20.7 mph N/A   Partly Cloudy
12:53 PM 12.9 °F -0.2 °F -0.0 °F 56% 30.30 in 10.0 mi West 10.4 mph 18.4 mph N/A   Partly Cloudy
1:53 PM 14.0 °F 2.9 °F -2.0 °F 49% 30.31 in 10.0 mi West 8.1 mph - N/A   Clear
2:53 PM 12.0 °F 0.5 °F -5.1 °F 46% 30.35 in 10.0 mi West 8.1 mph - N/A   Clear
3:53 PM 12.0 °F -0.4 °F -6.0 °F 44% 30.37 in 10.0 mi WSW 9.2 mph 17.3 mph N/A   Clear
4:53 PM 10.0 °F -0.9 °F -8.0 °F 44% 30.39 in 10.0 mi West 6.9 mph 16.1 mph N/A   Clear
5:53 PM 9.0 °F -2.2 °F -7.1 °F 48% 30.42 in 10.0 mi West 6.9 mph 19.6 mph N/A   Mostly Cloudy
6:53 PM 7.0 °F -3.3 °F -8.0 °F 51% 30.46 in 10.0 mi Variable 5.8 mph - N/A   Partly Cloudy
7:53 PM 7.0 °F -3.3 °F -6.0 °F 55% 30.49 in 10.0 mi Variable 5.8 mph - N/A   Partly Cloudy
8:53 PM 6.1 °F -5.6 °F -6.0 °F 58% 30.52 in 10.0 mi WSW 6.9 mph - N/A   Scattered Clouds
9:53 PM 6.1 °F -6.8 °F -6.0 °F 58% 30.53 in 10.0 mi West 8.1 mph - N/A   Overcast
10:53 PM 6.1 °F -2.8 °F -6.0 °F 58% 30.54 in 10.0 mi WSW 4.6 mph - N/A   Overcast
11:53 PM 5.0 °F -4.1 °F -6.0 °F 61% 30.56 in 10.0 mi West 4.6 mph - N/A   Overcast